10:04
Airports
History
Links
Donate
Help keep this website running!
PayPal
Bitcoin
Information on this page is community maintained and may be outdated or inaccurate and is intended for reference only or PC simulator navigating!
Always use approved charts for navigating.
EDAS
Finsterwalde
Finsterwalde (EDAS)
Finsterwalde, Brandenburg, Germany (3238)
4
Lat/Lng:51° 38' 7.2" N / 13° 40' 25.2" E
51.635334 / 13.673668
Elevation:384'ft 117mMSL
ID / ICAO:EDAS
Runways:1
Longest:(09-27) 853.0m 2,799ft Grass
Distance To
Airport ID:
Nearby VORs <50NM
Nearby NDBs
Nearby WeatherUpdated 04-23-17 09:20 GMT
Nearby weather at ETSH, Holzdorf located 23.5 nautical miles from EDAS
Altimeter: 30.12
Visibility: 6.2 statute miles
Wind: 11 knots (280°)
Temp: 7°c 45°f
Humidity: 81.2%

METAR: ETSH 230920Z 28011G21KT 9999 VCSH SCT020TCU SCT040 07/04 Q1020 BLU+

(Powered by phpweather)
Runway 09 / 27
Dimensions:853 x 29.9m 2799' x 98'ft
Surface:Grass
Runway 09 [A]Runway 27 [B]
Heading:090°TH 270°TH
Lat:
Lng:
51° 38' 7.2"N
13° 40' 3.03"E
51° 38' 7.2"N
13° 40' 47.38"E
Google Map
Nearby Airports
(U) FINSTERWALDE SCHACKSDORF 3.4 NM
EDUS SE 125°
4 Bronkow 12.4 NM
EDBQ E 80°
4 Schwarzheide Schipkau 13.3 NM
EDBZ SE 138°
(U) FALKENBERG LONNEWITZ 20.0 NM
EDUF WSW 252°
(U) SPREMBERG WELZOW 20.4 NM
EDCY E 101°
(U) GROSSENHAIN 23.2 NM
EDAK SSW 192°
(C) Holzdorf 23.5 NM
ETSH (WX) WNW 292°
VFR Chart
Flight Planning at SkyVector.com